Regional Weather Roundup
Issued by NWS

Current Version | Previous Version | Text Only | Print | Product List | Glossary On
Versions: 1 2 3 4 5 6 7 8 9 10 11 12 13 14 15 16 17 18 19 20 21 22 23 24 25 26 27 28 29 30 31 32 33 34 35 36 37 38 39 40 41 42 43 44 45 46 47 48 49 50
000
ASUS44 KOUN 170010
RWROK

WEATHER ROUNDUP FOR OKLAHOMA
NATIONAL WEATHER SERVICE NORMAN OK
700 PM CDT TUE SEP 16 2014

NOTE: "FAIR" INDICATES FEW OR NO CLOUDS BELOW 12,000 FEET WITH NO
      SIGNIFICANT WEATHER AND/OR OBSTRUCTIONS TO VISIBILITY.

OKZ001>007-009>012-014-015-017-170100-
NORTHWEST OKLAHOMA AND THE PANHANDLE

CITY           SKY/WX    TMP DP  RH WIND       PRES   REMARKS
GAGE           PTCLDY    83  63  50 S16       30.01F
6HR MIN TEMP:  70; 6HR MAX TEMP:  87;

ENID/WOODRING  PTCLDY    81  68  65 SE9       29.99F
$$

OKZ016-021>023-033>039-044-045-170100-
SOUTHWEST OKLAHOMA

CITY           SKY/WX    TMP DP  RH WIND       PRES   REMARKS
LAWTON/REGL    CLOUDY    86  65  49 S5        30.00S
6HR MIN TEMP:  86; 6HR MAX TEMP:  91;

LAWTON/FT SILL CLOUDY    84  66  54 S3        29.99F
FREDERICK      PTCLDY    86  65  49 S6        29.97F
CLINTON        MOCLDY    85  64  49 SW10      30.04S
HOBART         CLOUDY    85  64  49 S10       30.02S
ALTUS AFB      MOCLDY    85  66  51 S8        30.01S
$$

OKZ018>020-024>031-170100-
CENTRAL OKLAHOMA

CITY           SKY/WX    TMP DP  RH WIND       PRES   REMARKS
OKLAHOMA CITY  MOCLDY    84  70  62 E9        30.00F
6HR MIN TEMP:  84; 6HR MAX TEMP:  89;

OKC/WILEY POST CLEAR     82  71  69 E8        30.00F
OKC/TINKER AFB CLEAR     82  71  70 E8        30.01S
STILLWATER     CLEAR     77  67  71 E7        30.01F
GUTHRIE        CLEAR     80  70  71 E7        30.00F
$$

OKZ008-013-054>072-170100-
NORTHEAST OKLAHOMA

CITY           SKY/WX    TMP DP  RH WIND       PRES   REMARKS
TULSA          CLEAR     76  65  68 E5        30.01F
6HR MIN TEMP:  71; 6HR MAX TEMP:  78;

TULSA/JONES    CLEAR     77  65  66 CALM      30.02F
PONCA CITY     CLEAR     74  65  73 SE9       30.01F
BARTLESVILLE   CLOUDY    73  66  78 SE5       30.04F
MUSKOGEE       CLEAR     77  69  76 NE7       30.02F
$$

OKZ032-040>043-046>053-073>077-170100-
SOUTH CENTRAL/SOUTHEAST OKLAHOMA

CITY           SKY/WX    TMP DP  RH WIND       PRES   REMARKS
ARDMORE/DWNTWN MOCLDY    81  70  69 CALM      29.99F
MCALESTER      CLEAR     84  71  65 E3        30.00S
$$




USA.gov is the U.S. government's official web portal to all federal, state and local government web resources and services.